Milwaukee, WI

9:46 PM CST on November 19, 2019 (GMT -0600)
Gen Mitchell International

Weather History for KMKE - September, 2019

Change the Weather History Date:

Tuesday, September 3, 2019

  Actual Average Record
Temperature  
Mean Temperature 73 °F 68 °F  
Max Temperature 80 °F 76 °F 95 °F (1939)
Min Temperature 66 °F 60 °F 44 °F (1974)
Degree Days  
Heating Degree Days 0 1  
Month to date heating degree days 0 3  
Since 1 July heating degree days 2 29  
Cooling Degree Days 8 4  
Month to date cooling degree days 18 13  
Year to date cooling degree days 624 578  
Growing Degree Days 23 (Base 50)    
Moisture  
Dew Point 65 °F    
Average Humidity 75    
Maximum Humidity 87    
Minimum Humidity 61    
Precipitation  
Precipitation 0.26 in 0.10 in 2.04 in (1900)
Month to date precipitation 0.26 0.31  
Year to date precipitation 28.67 24.49  
Snow  
Snow 0.00 in 0.00 in 0.00 in (2018)
Month to date snowfall 0.0 0.0  
Since 1 July snowfall 0.0 0.0  
Since 1 September snowfall 0.0 0.0  
Snow Depth 0.00 in    
Sea Level Pressure  
Sea Level Pressure 29.81 in    
Wind  
Wind Speed 12 mph ()    
Max Wind Speed 31 mph    
Max Gust Speed 45 mph    
Visibility 9.5 miles    
Events Rain , Thunderstorm    
T = Trace of Precipitation, MM = Missing Value Source: Averaged Metar Reports

Daily Weather History Graph

Daily Weather History Graph

Search for Another Location

Airport or City:

Astronomy

Sep. 03, 2019 Rise Set
Actual Time 6:18 AM CDT 7:23 PM CDT
Civil Twilight 5:48 AM CDT 7:52 PM CDT
Nautical Twilight 5:14 AM CDT 8:26 PM CDT
Astronomical Twilight 4:37 AM CDT 9:03 PM CDT
Moon 11:17 AM CDT (9/3) 10:12 PM CDT (9/3)
Length of Visible Light 14h 03m
Length of Day
13h 05m
Waxing Crescent, 25% of the Moon is Illuminated
Sep 3
Waxing Crescent
Sep 5
First Quarter
Sep 13
Full
Sep 21
Last Quarter
Sep 28
New

Hourly Weather History & Observations

Time (CDT) Temp. Heat Index Dew Point Humidity Pressure Visibility Wind Dir Wind Speed Gust Speed Precip Events Conditions
12:52 AM 66.9 °F - 62.1 °F 84% 29.98 in 10.0 mi SSE 5.8 mph - N/A   Scattered Clouds
1:52 AM 66.9 °F - 62.1 °F 84% 29.96 in 10.0 mi SSE 4.6 mph - N/A   Scattered Clouds
2:52 AM 68.0 °F - 64.0 °F 87% 29.95 in 10.0 mi SSW 5.8 mph - N/A   Mostly Cloudy
3:52 AM 68.0 °F - 64.0 °F 87% 29.98 in 10.0 mi West 4.6 mph - N/A   Overcast
4:52 AM 69.1 °F - 64.9 °F 87% 29.96 in 7.0 mi SW 8.1 mph - 0.03 in Rain , Thunderstorm Thunderstorms and Rain
5:52 AM 69.1 °F - 64.9 °F 87% 29.86 in 8.0 mi SSW 25.3 mph 35.7 mph 0.16 in Rain Light Rain
6:13 AM 69.1 °F - 64.9 °F 87% 29.87 in 8.0 mi SSW 20.7 mph 39.1 mph 0.03 in Rain , Thunderstorm Light Thunderstorms and Rain
6:52 AM 70.0 °F - 64.0 °F 81% 29.80 in 10.0 mi South 18.4 mph 29.9 mph 0.05 in Rain , Thunderstorm Light Thunderstorms and Rain
7:16 AM 70.0 °F - 64.0 °F 81% 29.87 in 10.0 mi SW 15.0 mph - 0.00 in   Overcast
7:52 AM 70.0 °F - 64.9 °F 84% 29.83 in 10.0 mi SSW 15.0 mph 24.2 mph 0.00 in   Overcast
8:52 AM 70.0 °F - 64.9 °F 84% 29.81 in 10.0 mi South 16.1 mph - N/A   Mostly Cloudy
9:52 AM 73.0 °F - 64.9 °F 76% 29.80 in 10.0 mi SW 17.3 mph 28.8 mph N/A   Mostly Cloudy
10:52 AM 75.9 °F - 64.9 °F 69% 29.80 in 10.0 mi SW 23.0 mph 38.0 mph N/A   Mostly Cloudy
11:52 AM 78.1 °F - 66.9 °F 68% 29.75 in 10.0 mi SW 25.3 mph 35.7 mph N/A   Scattered Clouds
12:47 PM 80.6 °F 82.7 °F 66.2 °F 61% 29.75 in 10.0 mi SW 25.3 mph 44.9 mph N/A   Mostly Cloudy
12:52 PM 80.1 °F 82.3 °F 66.9 °F 64% 29.75 in 10.0 mi WSW 23.0 mph 42.6 mph N/A   Mostly Cloudy
1:52 PM 75.9 °F - 66.9 °F 74% 29.80 in 10.0 mi WSW 23.0 mph 33.4 mph N/A   Overcast
2:45 PM 75.0 °F - 68.0 °F 79% 29.77 in 10.0 mi WSW 19.6 mph 29.9 mph N/A   Overcast
2:52 PM 75.0 °F - 68.0 °F 79% 29.76 in 10.0 mi SW 20.7 mph 27.6 mph N/A   Overcast
3:52 PM 77.0 °F - 69.1 °F 76% 29.73 in 10.0 mi SW 16.1 mph 26.5 mph N/A   Mostly Cloudy
4:19 PM 78.1 °F - 69.1 °F 74% 29.73 in 10.0 mi WSW 13.8 mph 24.2 mph N/A   Overcast
4:45 PM 79.0 °F - 70.0 °F 74% 29.73 in 10.0 mi WSW 15.0 mph 26.5 mph N/A   Mostly Cloudy
4:52 PM 79.0 °F - 70.0 °F 74% 29.73 in 10.0 mi WSW 12.7 mph 21.9 mph N/A   Mostly Cloudy
5:18 PM 78.1 °F - 71.1 °F 79% 29.73 in 4.0 mi WSW 13.8 mph 19.6 mph 0.01 in Rain , Thunderstorm Light Thunderstorms and Rain
5:49 PM 75.2 °F - 66.2 °F 73% 29.74 in 9.0 mi WSW 11.5 mph - 0.02 in Rain , Thunderstorm Light Thunderstorms and Rain
5:52 PM 77.0 °F - 66.9 °F 71% 29.73 in 9.0 mi WSW 9.2 mph - 0.02 in Rain , Thunderstorm Light Thunderstorms and Rain
6:01 PM 77.0 °F - 66.9 °F 71% 29.74 in 10.0 mi West 8.1 mph - 0.00 in   Mostly Cloudy
6:52 PM 78.1 °F - 66.0 °F 66% 29.75 in 10.0 mi West 8.1 mph - 0.00 in   Scattered Clouds
7:52 PM 75.9 °F - 64.0 °F 67% 29.79 in 10.0 mi WNW 10.4 mph - N/A   Mostly Cloudy
8:52 PM 73.9 °F - 61.0 °F 64% 29.82 in 10.0 mi West 8.1 mph - N/A   Mostly Cloudy
9:52 PM 71.1 °F - 57.0 °F 61% 29.84 in 10.0 mi West 4.6 mph - N/A   Scattered Clouds
10:52 PM 70.0 °F - 55.9 °F 61% 29.86 in 10.0 mi West 5.8 mph - N/A   Scattered Clouds
11:52 PM 68.0 °F - 55.9 °F 65% 29.88 in 10.0 mi WNW 5.8 mph - N/A   Partly Cloudy